sat.trackr.live / text

‹ back to catalog

STARLINK-32318

NORAD 61864 · 2024-202V

PAYLOAD ACTIVE UNKNOWN

§ Identity

Operator
Country
US
Launch date
2024-11-07
Launch site
AFETR
Launch vehicle
Mass (kg)
RCS (m²)

Purposes: comms

External: N2YO · Heavens-Above · Gunter

§ Orbital elements

Epoch: 2026-09-21T06:10:25.083264Z

Period
94.27 min
Inclination
43.0028°
Eccentricity
0.0001153
Mean motion
15.27579954 rev/d
Perigee alt
482.3 km
Apogee alt
483.8 km
Semi-major
6,861.2 km
B*
3.2857e-5
RAAN
213.8292°
Arg perigee
271.9991°
Mean anomaly
88.0728°
Rev number
10,524

§ Raw data

STARLINK-323181 61864U 24202V   26264.25723476  .00000642  00000+0  32857-4 0  99912 61864  43.0028 213.8292 0001153 271.9991  88.0728 15.27579954105248

JSON: /api/v1/satellites/61864 · /tle

For live sub-satellite position, see the globe view (requires WebGL).

§ Visibility from observer

Set your observer location to see the next 7 days of passes ≥ 10°. The values pass through the URL so the page stays shareable.

No JS? Fill the form by hand. The geolocation button needs JavaScript.